Regional Weather Roundup
Issued by NWS

Home | Current Version | Previous Version | Text Only | Print | Product List | Glossary Off
Versions: 1 2 3 4 5 6 7 8 9 10 11 12 13 14 15 16 17 18 19 20 21 22 23 24 25 26 27 28 29 30 31 32 33 34 35 36 37 38 39 40 41 42 43 44 45 46 47 48 49 50

000
ASUS43 KMPX 301110
RWRMN
WEATHER ROUNDUP FOR MINNESOTA
NATIONAL WEATHER SERVICE TWIN CITIES/CHANHASSEN MN
600 AM CDT SUN AUG 30 2015


NOTE: "FAIR" INDICATES FEW OR NO CLOUDS BELOW 12,000 FEET WITH NO
SIGNIFICANT WEATHER AND/OR OBSTRUCTIONS TO VISIBILITY. N/A MEANS
CURRENT SKY AND/OR WEATHER CONDITIONS ARE NOT AVAILABLE.

MNZ060>063-068>070-301200-
   Twin Cities Metro

CITY           SKY/WX    TMP DP  RH WIND       PRES   REMARKS
TWIN CITIES    MOCLDY    63  60  90 S9        29.99F
ST PAUL        CLOUDY    63  63 100 SE6       30.00S
CRYSTAL        MOCLDY    63  60  90 S12       29.97F
BLAINE         CLOUDY    64  64 100 S9        29.98F
LAKEVILLE      CLEAR     57  57 100 CALM      30.01S FOG
EDEN PRAIRIE   CLOUDY    62  60  93 S10       29.98F
SOUTH ST PAUL  CLOUDY    64  62  95 S6        30.00S
LAKE ELMO      CLOUDY    63  63 100 S8        30.01F FOG
$$
MNZ001>005-007-008-013>017-022>024-027-028-301200-
   Northwest Minnesota

CITY           SKY/WX    TMP DP  RH WIND       PRES   REMARKS
BEMIDJI        CLEAR     61  61  99 S6        29.88S
HALLOCK        PTCLDY    66  64  94 S10       29.76F
ROSEAU         PTCLDY    64  59  82 S6        29.80S
WARROAD        FAIR      66  63  88 SW9       29.80S
THIEF RVR FALL CLEAR    N/A N/A N/A S7        29.82S
CROOKSTON      CLEAR     66  63  88 S13       29.81S
FOSSTON        CLEAR     61  61 100 S7        29.85F
DETROIT LAKES  PTCLDY    63  61  94 S7        29.89S
MOORHEAD       PTCLDY    64  63  94 S10       29.84F
PARK RAPIDS    CLOUDY    63  61  93 S8        29.90S
MAHNOMEN       FAIR      64  62  93 S7        29.85F
$$
MNZ006-009>011-018-025>026-301200-
   North Central Minnesota

CITY           SKY/WX    TMP DP  RH WIND       PRES   REMARKS
BAUDETTE       PTCLDY    63  61  93 S8        29.81S
FLAG ISLAND    PTCLDY    64  64 100 S5        29.78S
INTL FALLS     PTCLDY    62  61  96 SW7       29.84S
WASKISH        PTCLDY    64  63  94 S7        29.85S
BIG FORK       CLOUDY    64  63  94 S6        29.90S
LONGVILLE      CLOUDY    63  61  94 S7        29.91S
GRAND RAPIDS     N/A     61  57  88 S9        29.92S
CRANE LAKE     CLOUDY    61  59  94 S5        29.89F
ORR            CLOUDY    63  59  88 CALM      29.87F
COOK           CLOUDY    63  61  94 CALM      29.91S
WALKER         CLOUDY    63  61  95 S7        29.90S
$$
MNZ012-019>021-037-301200-
   Northeast Minnesota

CITY           SKY/WX    TMP DP  RH WIND       PRES   REMARKS
DULUTH         CLOUDY    63  61  93 SW10      29.95S
ELY            CLOUDY    61  57  88 SW7       29.91F
HIBBING        CLOUDY    61  60  97 S3        29.93R
EVELETH        CLOUDY    59  59 100 SW6       29.95R FOG
DULUTH HARBOR  CLOUDY    64  63  94 SW3       29.95S
TWO HARBORS    CLOUDY    64  61  88 SW9       29.93S HAZE
SILVER BAY     CLOUDY    63  61  94 S6        29.92F FOG
GRAND MARAIS     N/A     50  49  96 W3        29.93S
G MARAIS ARPRT CLOUDY    59  55  88 S8        29.95F FOG
$$
MNZ029>031-032-039>041-046>048-054>057-064-301200-
   West Central Minnesota

CITY           SKY/WX    TMP DP  RH WIND       PRES   REMARKS
FERGUS FALLS   CLEAR     63  63 100 SE10      29.88S
WHEATON        CLEAR     59  57  94 SE9       29.89S
MORRIS         CLEAR     61  61 100 SE10      29.90S FOG
ALEXANDRIA     CLEAR     62  61  96 S9        29.93F
ELBOW LAKE     FAIR      61  60  97 S12       29.89S
WADENA         CLEAR     59  57  94 S5        29.90F FOG
GLENWOOD       CLOUDY    63  61  94 S13       29.94F FOG
APPLETON       CLEAR     63  59  88 SE7       29.91S FOG
BENSON         MOCLDY    61  57  88 S8        29.93S FOG
ORTONVILLE     CLEAR     61  57  88 SE8       29.90S
MADISON        CLEAR     61  59  94 S8        29.91F FOG
WILLMAR        CLOUDY    63  63 100 S5        29.97F FOG
$$
MNZ033>034-036-042>043-049>051-058-059-301200-
   Central Minnesota

CITY           SKY/WX    TMP DP  RH WIND       PRES   REMARKS
ST CLOUD       CLOUDY    60  60 100 S12       29.96S
SAUK CENTRE    CLOUDY    61  61  99 S7        29.94S FOG
PAYNESVILLE    CLOUDY    60  60  98 SE7       29.97S FOG
AITKIN         PTCLDY    64  57  77 S6        29.92S
PINE RIVER     CLOUDY    63  63 100 S6        29.95S
BRAINERD       CLOUDY    62  60  93 S9        29.93S
STAPLES        CLOUDY    61  61 100 S10       29.92S
LONG PRAIRIE   CLOUDY    59  59 100 S9        29.94S
LITTLE FALLS   CLOUDY    59  59 100 S5        29.94S FOG
LITCHFIELD     CLOUDY    63  63 100 S6        29.98S FOG
BUFFALO        CLOUDY    61  59  92 S9        29.98F
MAPLE LAKE     CLOUDY    61  61  98 S5        29.98F
$$
MNZ037-044-045-052-053-301200-
   East Central Minnesota

CITY           SKY/WX    TMP DP  RH WIND       PRES   REMARKS
PRINCETON      CLOUDY    63  61  94 S7        29.97S
MORA           CLOUDY    61  59  94 S7        29.99S
CAMBRIDGE      CLOUDY    64  55  72 S8        29.96S
RUSH CITY      CLOUDY    63  62  96 S7        29.98S
MOOSE LAKE     CLOUDY    63  61  94 SW9       29.94S
HINCKLEY       CLOUDY    63  63 100 SW7       29.97F
CLOQUET        CLOUDY    63  61  94 S10       29.95S
MCGREGOR       PTCLDY    63  61  94 S6        29.95R
$$
MNZ071>073-080-081-089-090-097-098-301200-
   Southwest Minnesota

CITY           SKY/WX    TMP DP  RH WIND       PRES   REMARKS
MONTEVIDEO     CLEAR     61  61 100 S7        29.95S
GRANITE FALLS  CLEAR     60  60  99 SE7       29.96F
CANBY          CLEAR     64  60  85 S7        29.92F
MARSHALL       CLEAR     61  55  82 S9        29.96S
REDWOOD FALLS  CLOUDY    62  60  93 S9        29.97S
OLIVIA         CLOUDY    59  55  88 S9        29.97S
PIPESTONE      CLOUDY    63  61  94 S8G16     29.99S FOG
WINDOM         CLOUDY    61  59  94 S13       30.00F
WORTHINGTON    CLOUDY    61  57  88 S14       30.01S
JACKSON        CLOUDY    61  61 100 S10       30.03S FOG
TRACY          PTCLDY    62  61  96 S12G17    29.97S
SLAYTON        CLOUDY    60  60 100 S15       30.00F
$$
MNZ065>067-074>077-082>085-091>093-301200-
   South Central Minnesota

CITY           SKY/WX    TMP DP  RH WIND       PRES   REMARKS
MANKATO        CLOUDY    61  57  88 SW9       30.01S
NEW ULM        CLOUDY    61  61 100 SW9       29.99F
ST JAMES       CLOUDY    63  61  94 S8        30.02S
FAIRMONT       CLOUDY    63  55  77 S12       30.02F
GLENCOE        CLOUDY    62  62  99 S6        29.98F
FARIBAULT      PTCLDY    61  59  94 S6        30.02S FOG
OWATONNA       CLEAR     61  57  88 S7        30.03R FOG
WASECA         CLEAR     55  55 100 S5        30.04S FOG
ALBERT LEA     PTCLDY    61  59  94 S5        30.03F FOG
$$
MNZ078>079-086>088-094>096-301200-
   Southeast Minnesota

CITY           SKY/WX    TMP DP  RH WIND       PRES   REMARKS
ROCHESTER      CLEAR     56  56 100 S8        30.04S FOG
RED WING       MOCLDY    63  61  94 S5        30.02R
STANTON        CLOUDY    63  61  93 SW7       30.00S
DODGE CENTER   FOG       61  61 100 SW6       30.03S VSB 1/2
WINONA         FOG       59  59 100 CALM      30.05R VSB 1/4
AUSTIN         DRZL/FOG  61  61 100 S6        30.04S VSB 1/4
PRESTON        FOG       56  55  96 S5        30.06S VSB 1/4
$$
ABBREVIATIONS USED IN REMARKS
   TC - TEMPERATURES IN CELSIUS
  WCI - WIND CHILL INDEX
   HX - HEAT INDEX
  VSB - VISIBILITY
$$


USA.gov is the U.S. government's official web portal to all federal, state and local government web resources and services.